Regional Weather Roundup
Issued by NWS Charleston, WV

Home | Current Version | Previous Version | Text Only | Print | Product List | Glossary On
Versions: 1 2 3 4 5 6 7 8 9 10 11 12 13 14 15 16 17 18 19 20 21 22 23 24 25 26 27 28
000
ASUS41 KRLX 181410
RWRRLX
West Virginia Regional Weather Roundup
National Weather Service Charleston WV
900 AM EST THU JAN 18 2018

Note: "fair" indicates few or no clouds below 12,000 feet with no
significant weather and/or obstructions to visibility.

WVZ003-181500-
Northern Panhandle of West Virginia

CITY           SKY/WX    TMP DP  RH WIND       PRES   REMARKS
WHEELING         N/A     10   4  76 SW14G25   30.23S WCI  -6
$$

WVZ009-181500-
Northwest West Virginia

CITY           SKY/WX    TMP DP  RH WIND       PRES   REMARKS
PARKERSBURG      N/A     10   5  80 S9        30.39S WCI  -3
$$

WVZ006-181500-
Western West Virginia

CITY           SKY/WX    TMP DP  RH WIND       PRES   REMARKS
HUNTINGTON       N/A     10   5  80 S9        30.43S WCI  -3
$$

WVZ015-181500-
West Central West Virginia

CITY           SKY/WX    TMP DP  RH WIND       PRES   REMARKS
CHARLESTON       N/A     13   7  77 SW12      30.42S WCI  -1
$$

WVZ022-031-181500-
North Central West Virginia

CITY           SKY/WX    TMP DP  RH WIND       PRES   REMARKS
CLARKSBURG       N/A     13   6  74 SW12      30.33S WCI  -1
MORGANTOWN       N/A     13   6  74 S12       30.30S WCI  -1
$$

WVZ025-035-042-045-181500-
Southern West Virginia

CITY           SKY/WX    TMP DP  RH WIND       PRES   REMARKS
BECKLEY          N/A      7   3  84 W9        30.30R WCI  -7
LOGAN          FLURRIES  10   7  85 CALM      30.39S
BLUEFIELD        N/A      5   2  87 W13       30.28R WCI -12
LEWISBURG        N/A     11   4  74 W7        30.29R WCI   1
$$

WVZ047-181500-
Northern Mountains of West Virginia

CITY           SKY/WX    TMP DP  RH WIND       PRES   REMARKS
ELKINS           N/A      9   2  73 S6        30.30R WCI  -1
$$

WVZ052-181500-
Eastern Panhandle of West Virginia

CITY           SKY/WX    TMP DP  RH WIND       PRES   REMARKS
MARTINSBURG      N/A     24   5  44 S5        30.17S
PETERSBURG       N/A      9   3  78 SE3       30.21S
$$




USA.gov is the U.S. government's official web portal to all federal, state and local government web resources and services.